Temperature
7 5 5 7 7 8 8 8 8 8 9 9 8 8 8 9 9 8 8 8 8 8 8 8 8 8 8 8 8 8 9 9 9 9 9 9 10 10 10 10 10 10 11 11
5 6 7 8 8 8 8 7 8 8 9 9 8 8 8 8 8 8 8 8 8 8 8 8 8 8 8 8 8 8 8 8 8 8 8 8 9 9 9 9 10 10 10 10
6 7 8 8 8 8 7 7 7 8 8 8 8 7 8 8 8 8 8 8 7 7 7 7 7 7 7 7 7 7 7 7 8 8 8 8 8 9 9 9 9 9 9 9
6 7 8 7 7 7 7 8 8 8 6 5 7 6 7 7 7 7 6 7 7 7 7 6 6 6 6 6 6 7 7 7 7 8 8 8 8 8 8 8 8 9 9 9
6 7 7 7 8 8 7 8 8 7 6 5 5 5 6 7 7 6 6 6 6 6 6 6 6 6 6 6 6 6 7 7 7 7 7 7 7 7 8 8 8 8 8 8
7 7 7 8 8 8 8 7 7 6 5 6 6 5 5 6 7 7 6 6 6 6 6 6 6 6 6 6 6 6 6 7 7 7 7 7 7 7 7 7 7 8 8 8
6 7 7 8 7 7 7 5 5 5 5 6 6 5 5 7 7 7 6 6 6 6 6 6 6 6 5 5 6 6 6 6 6 6 6 6 6 6 6 6 7 7 7 7
5 6 7 7 7 7 7 6 5 6 6 5 6 6 6 7 7 7 7 7 6 6 6 6 6 5 5 5 5 5 6 6 6 6 6 6 6 6 6 6 6 6 6 6
6 6 7 8 8 7 7 6 6 5 5 5 5 6 6 7 6 6 6 6 6 6 6 6 6 5 5 5 5 5 5 5 6 6 6 6 5 5 5 5 5 5 5 5
6 6 7 8 8 7 7 6 5 5 6 6 6 6 6 7 6 6 5 5 6 6 6 6 6 5 5 5 5 5 5 5 5 5 5 5 5 5 5 5 5 5 5 5
7 6 6 7 6 6 7 7 6 5 5 6 5 6 7 7 7 6 6 6 7 6 6 6 6 5 5 5 5 5 5 5 5 5 4 4 5 5 4 5 5 5 4 5
7 5 5 6 7 7 6 6 6 5 5 5 5 6 7 7 7 7 7 7 7 7 6 6 6 5 5 5 5 5 5 5 4 4 4 4 4 4 4 4 4 4 4 4
7 5 5 6 6 7 7 6 6 6 5 4 5 6 7 6 7 7 7 7 7 7 6 6 6 6 5 5 5 5 5 4 4 4 4 4 4 4 3 3 3 3 3 3
7 5 5 6 6 6 6 6 6 6 5 4 5 6 6 6 6 6 7 8 7 7 7 6 6 6 6 5 5 5 4 4 4 4 4 4 3 3 3 3 3 3 3 3
6 5 5 5 6 6 6 6 6 6 5 5 5 5 7 6 6 7 7 8 7 7 7 6 6 6 6 5 5 5 4 4 4 4 3 3 3 3 3 3 2 2 2 2
5 5 5 4 5 5 5 6 6 6 6 6 6 6 7 7 7 7 7 7 7 7 7 7 6 6 6 5 5 5 4 4 4 3 3 3 3 2 2 2 2 2 2 1
4 4 4 3 4 5 5 6 6 5 5 6 6 6 6 6 6 7 8 8 7 7 7 7 7 6 6 6 5 5 4 4 4 3 3 3 2 2 2 2 2 1 1 1
4 4 4 3 4 5 7 7 7 6 6 6 6 6 6 6 8 8 8 8 8 8 7 7 7 6 6 6 5 5 4 4 3 3 3 3 2 2 2 1 1 1 1 0
3 4 4 4 4 4 6 7 7 7 7 6 6 6 6 7 7 7 8 8 8 8 7 7 7 6 6 5 5 4 4 4 3 3 3 2 2 2 1 1 1 0 -0 -0
3 4 4 3 4 5 7 8 8 8 7 7 6 6 6 6 5 6 8 8 7 7 7 7 6 6 6 5 5 4 4 3 3 3 3 2 2 1 1 1 0 -0 -1 -1
4 3 3 3 4 4 6 7 7 7 8 8 8 7 7 6 7 8 8 7 7 7 7 6 6 6 5 5 4 4 4 3 3 2 2 2 1 1 0 0 -0 -1 -1 -1
3 2 2 3 3 4 6 6 6 7 8 9 8 8 8 8 8 7 7 7 7 6 6 6 6 5 5 4 4 4 3 3 2 2 2 1 1 0 -0 -0 -1 -1 -2 -2
3 4 3 4 5 7 7 8 9 9 8 9 8 8 8 7 7 7 7 7 6 6 6 5 5 5 5 4 4 3 3 2 2 2 1 1 0 -0 -0 -1 -1 -2 -2 -2
3 3 3 3 4 5 7 8 8 8 8 8 8 7 7 7 7 7 6 6 6 5 5 5 5 4 4 4 3 3 2 2 1 1 1 0 -0 -1 -1 -1 -2 -2 -2 -3
3 3 2 3 4 5 7 8 8 8 8 7 7 7 7 6 6 6 6 6 5 5 5 4 4 4 4 4 3 3 2 2 1 1 0 0 -1 -1 -1 -2 -2 -2 -3 -4
2 4 3 5 6 5 7 8 7 7 7 7 6 6 6 6 6 6 5 5 5 5 5 4 4 4 4 3 3 2 2 1 1 0 0 -0 -1 -1 -2 -2 -2 -3 -3 -4
Wind_Speed
5 6 4 2 2 3 4 4 3 3 3 2 5 7 8 5 4 4 3 2 1 0 2 4 5 6 7 8 8 8 9 8 7 5 4 4 4 4 4 4 6 6 6 5
6 4 0 1 2 5 5 4 2 1 1 1 3 7 7 5 5 5 5 4 2 0 3 4 5 6 7 7 8 8 8 8 7 5 4 3 3 3 3 4 6 7 6 5
6 1 1 4 5 6 4 3 2 1 3 3 3 6 3 1 2 3 4 3 2 1 1 3 5 5 6 7 8 8 8 8 7 6 4 4 3 2 3 4 4 6 7 6
5 2 3 4 3 4 2 1 2 2 3 3 1 3 6 3 2 3 3 2 2 1 0 2 3 4 5 6 7 7 8 8 7 6 5 5 4 3 3 4 4 5 6 7
3 2 4 3 2 2 2 1 2 2 2 2 1 2 7 2 4 5 5 4 3 2 1 1 2 3 4 5 6 6 7 7 7 6 6 5 4 3 3 4 4 5 5 7
2 2 2 1 1 2 2 4 4 4 3 2 3 4 6 4 5 4 4 4 4 3 2 1 1 2 3 5 5 6 6 7 7 7 7 6 4 4 5 5 5 5 4 5
5 3 2 2 3 4 4 5 4 3 2 4 2 3 8 6 5 5 6 5 4 3 2 2 2 2 3 4 5 5 6 6 6 7 7 6 5 5 5 4 5 5 5 5
3 3 2 0 1 1 0 4 4 2 3 4 2 5 6 3 2 3 4 4 3 3 3 3 3 2 3 3 3 4 4 5 6 6 7 6 6 5 5 5 4 5 4 4
2 2 2 1 0 2 2 1 3 4 1 3 5 6 5 1 1 2 2 3 4 5 5 5 4 3 2 2 2 2 3 4 5 5 6 7 7 7 6 6 6 5 5 5
2 0 2 1 2 1 2 2 3 2 0 3 5 5 4 5 6 5 5 5 6 5 5 5 4 3 3 2 1 1 2 2 3 5 5 5 6 6 6 6 7 7 7 7
2 2 2 1 3 4 3 2 2 2 3 2 4 6 5 6 6 7 7 7 6 6 6 5 5 4 3 2 1 1 1 2 3 4 4 5 5 6 7 6 7 6 7 7
1 2 2 5 5 4 5 5 5 3 3 3 3 7 5 5 5 5 6 6 6 6 5 5 5 4 3 3 2 1 1 1 1 2 3 4 5 6 6 6 6 6 6 7
2 2 2 4 3 1 3 4 5 4 2 4 4 7 3 1 2 4 5 6 6 6 5 4 4 4 4 4 3 3 2 1 1 2 3 4 4 4 4 5 5 6 6 7
3 2 5 6 5 3 5 5 6 5 4 5 9 10 8 6 6 6 6 6 6 6 5 5 5 5 5 4 4 3 3 2 2 2 2 2 2 2 3 4 5 5 5 6
3 2 5 8 9 7 9 10 9 11 10 9 9 9 13 9 9 8 7 6 6 6 6 7 7 6 5 5 4 4 3 3 3 3 2 1 1 2 2 3 4 4 5 5
1 2 3 6 6 7 10 13 12 13 11 13 13 15 12 7 6 6 7 7 7 8 8 8 7 7 7 7 6 5 4 4 3 3 2 0 1 1 2 2 3 4 4 4
1 1 2 5 7 7 9 10 10 7 8 10 14 12 6 5 7 8 8 8 9 9 9 8 8 9 9 8 7 7 6 4 4 3 2 1 1 0 1 2 2 3 3 3
4 2 1 4 6 6 7 3 6 8 8 10 9 8 7 8 7 7 7 8 9 8 8 8 7 8 7 6 6 6 5 5 5 3 2 2 1 1 1 1 2 2 2 2
7 5 2 2 5 9 9 5 4 5 7 7 10 9 6 4 2 5 6 6 7 8 7 7 7 6 6 7 6 6 5 5 4 4 3 3 2 2 1 2 2 2 2 2
4 4 3 3 4 6 7 2 1 1 6 5 5 6 4 4 2 6 5 5 5 5 5 5 5 5 6 6 6 6 6 5 6 5 4 3 3 3 3 3 2 2 2 2
3 4 6 7 7 9 8 3 2 2 6 2 4 5 6 7 8 5 4 5 5 5 5 4 5 6 7 7 7 7 6 7 6 4 3 3 3 3 3 2 2 2 2 2
8 7 7 6 7 10 5 5 6 8 3 3 4 5 7 8 7 5 5 5 5 4 4 4 5 5 5 6 7 7 7 6 4 4 4 3 3 2 2 2 2 2 2 2
9 10 7 11 11 6 5 8 7 4 5 5 5 6 6 6 6 6 5 6 5 6 5 5 5 5 4 6 7 8 7 5 5 5 4 3 3 2 2 2 2 2 2 2
6 5 5 7 11 10 9 8 8 7 7 7 6 6 6 7 8 7 6 6 6 6 5 5 5 6 6 6 7 7 5 6 6 5 4 3 3 2 2 2 2 2 2 3
8 5 5 9 10 8 7 7 7 6 6 6 6 6 8 8 8 7 7 7 7 6 5 6 7 8 8 6 6 6 6 6 6 5 5 4 3 3 3 2 3 3 4 4
8 10 9 11 9 7 8 6 5 6 8 8 7 7 7 8 9 8 8 7 7 6 6 6 7 7 7 6 6 6 6 7 7 5 5 4 3 3 2 2 3 5 5 7
Wind_Direction
37 67 88 125 131 146 136 133 142 204 198 205 237 259 265 254 213 201 197 166 145 30 349 9 8 3 1 358 353 347 345 342 344 336 331 326 328 331 335 338 338 334 334 330
57 60 58 93 62 85 91 99 92 24 2 246 271 278 270 246 214 190 176 170 173 345 358 2 4 2 358 353 350 347 344 342 342 333 315 291 288 300 316 344 351 353 356 355
102 142 60 84 72 85 62 118 143 176 349 359 338 309 291 268 157 150 154 161 162 147 347 347 352 355 352 350 346 344 339 339 338 336 337 339 342 339 350 354 351 354 359 3
64 33 79 79 58 91 82 84 105 82 57 323 43 292 284 254 229 202 189 180 192 204 323 332 339 346 347 341 340 340 341 343 344 351 2 6 11 353 336 333 337 348 1 7
57 47 67 73 38 86 159 98 80 86 90 340 332 209 286 280 242 236 218 215 218 217 228 283 320 330 337 337 340 338 342 349 352 1 11 14 11 351 342 347 353 360 4 7
54 22 56 62 16 58 74 49 46 54 69 307 233 184 281 246 225 228 215 216 220 221 230 257 310 340 343 344 347 344 351 357 0 8 15 20 14 6 9 5 2 3 2 3
19 8 358 33 43 24 57 75 46 5 357 259 234 202 254 252 225 201 201 212 216 217 226 261 296 324 331 339 345 348 358 360 3 14 17 15 14 23 25 10 4 7 6 5
55 340 309 354 131 143 41 122 143 189 243 287 286 238 256 269 214 168 174 189 203 221 236 245 254 269 297 316 336 349 -0 1 7 20 19 19 20 26 23 19 15 17 8 0
102 287 298 247 181 126 107 129 165 137 257 283 279 278 294 197 175 170 185 195 224 236 239 243 244 247 260 277 311 344 3 5 12 22 25 27 24 29 28 24 22 23 16 14
125 182 289 316 48 14 149 150 100 121 199 285 292 270 252 244 238 229 227 229 240 246 243 244 239 234 239 247 282 10 16 14 18 30 38 41 31 34 36 35 30 25 20 20
93 121 309 343 208 202 174 186 162 157 184 199 284 275 228 220 214 215 229 231 232 235 234 233 231 226 218 218 200 68 35 37 29 32 43 42 32 32 35 36 30 26 24 22
99 121 262 259 250 201 186 196 166 173 230 204 230 269 266 228 214 211 231 235 231 230 232 228 222 213 202 204 203 175 145 85 47 46 56 52 41 37 33 30 26 27 27 24
112 108 356 340 331 232 226 216 192 177 176 201 217 259 293 256 242 237 236 237 233 230 229 224 215 208 206 204 198 186 167 150 112 81 71 55 42 36 27 22 22 26 26 23
106 157 191 217 230 221 248 240 204 180 204 228 230 251 270 267 267 264 250 240 231 226 222 217 216 216 213 207 199 191 185 173 149 118 91 63 38 32 25 21 22 23 24 24
99 234 249 255 258 250 246 248 226 217 216 225 244 246 258 246 244 248 245 239 227 229 227 220 218 216 211 207 204 199 190 180 161 140 124 88 28 35 32 26 20 21 24 22
91 264 299 286 269 263 262 251 234 231 229 237 254 268 260 249 236 240 242 233 228 230 228 225 221 214 209 206 202 195 192 185 165 156 166 160 68 47 29 17 15 17 14 9
234 226 314 285 306 316 274 241 210 208 212 208 234 244 249 248 241 236 233 228 227 229 226 222 220 215 210 204 195 193 194 178 165 169 174 172 152 52 345 1 10 360 351 355
181 168 240 294 338 271 246 246 197 215 238 221 231 242 230 232 241 239 224 222 230 231 227 224 218 214 208 194 186 184 179 173 174 180 191 196 191 240 300 332 328 319 315 325
178 168 222 275 293 281 291 268 199 205 268 228 229 246 246 246 303 281 236 217 224 227 224 221 216 207 193 187 181 172 178 177 181 194 202 204 198 218 253 279 290 291 299 311
146 160 189 221 260 260 258 273 165 105 282 252 207 221 214 150 257 265 247 236 239 235 223 216 202 184 184 189 170 169 184 187 202 208 204 200 197 208 233 253 268 276 285 296
152 184 208 222 245 267 260 241 134 197 256 245 193 204 194 204 225 248 259 244 238 233 228 206 187 188 194 180 166 180 192 208 212 196 188 191 200 215 228 240 250 273 291 308
188 189 201 192 218 254 234 158 191 224 250 232 223 220 222 236 252 259 252 245 239 232 222 199 191 202 195 176 173 189 211 216 192 179 184 197 211 222 221 227 262 273 281 298
206 199 196 201 220 240 208 212 234 220 233 242 236 240 232 240 247 249 247 243 238 231 220 206 197 201 203 192 185 200 216 193 178 180 193 204 210 221 219 218 242 262 260 271
254 207 211 248 258 255 255 256 263 246 238 245 242 241 230 236 246 251 249 243 238 234 223 207 195 203 214 206 201 208 201 180 176 188 200 201 203 224 235 234 234 244 255 268
234 215 228 255 270 287 272 246 249 252 249 252 250 238 234 237 248 245 245 243 238 235 224 207 204 212 218 207 208 206 191 176 182 192 198 199 206 216 233 245 242 253 244 247
207 208 219 244 240 234 262 265 258 257 260 258 255 256 247 234 242 244 244 241 236 232 223 215 213 214 215 205 211 208 191 179 181 193 199 202 206 217 229 254 289 287 282 287
Height
1502 1507 1512 1511 1510 1511 1512 1515 1518 1517 1514 1516 1516 1515 1512 1511 1511 1511 1511 1512 1512 1511 1511 1509 1508 1506 1504 1501 1499 1497 1495 1493 1491 1489 1487 1486 1485 1484 1484 1484 1483 1483 1483 1483
1509 1512 1511 1510 1509 1511 1513 1517 1518 1517 1515 1516 1516 1514 1510 1508 1508 1508 1509 1509 1510 1509 1508 1507 1506 1504 1501 1499 1497 1495 1493 1491 1489 1487 1486 1484 1483 1482 1482 1481 1480 1480 1480 1479
1511 1513 1510 1511 1512 1513 1516 1518 1519 1519 1518 1517 1518 1515 1510 1507 1507 1507 1508 1508 1508 1507 1506 1505 1504 1502 1500 1497 1495 1493 1491 1489 1487 1486 1484 1483 1481 1480 1479 1478 1477 1477 1477 1476
1512 1512 1512 1513 1515 1515 1519 1516 1517 1518 1523 1526 1523 1527 1512 1508 1507 1506 1506 1506 1506 1506 1505 1504 1502 1500 1498 1496 1494 1492 1490 1488 1486 1484 1482 1481 1479 1478 1477 1476 1475 1474 1474 1473
1516 1514 1515 1516 1516 1515 1517 1516 1518 1520 1523 1528 1526 1529 1517 1508 1507 1505 1504 1504 1504 1504 1503 1502 1500 1499 1497 1495 1493 1491 1489 1487 1485 1483 1481 1480 1478 1477 1476 1475 1474 1473 1472 1471
1516 1516 1516 1516 1516 1516 1516 1518 1520 1524 1527 1529 1525 1530 1520 1510 1504 1502 1502 1502 1502 1502 1501 1500 1499 1497 1495 1494 1492 1490 1488 1486 1484 1482 1480 1479 1478 1476 1475 1473 1472 1471 1470 1469
1520 1518 1517 1517 1517 1518 1519 1526 1534 1531 1534 1529 1522 1524 1516 1502 1499 1499 1499 1500 1500 1500 1499 1498 1497 1496 1494 1493 1491 1489 1487 1485 1483 1481 1479 1478 1477 1475 1474 1472 1471 1469 1468 1467
1525 1526 1519 1518 1518 1520 1520 1524 1533 1532 1533 1529 1521 1519 1507 1499 1497 1497 1498 1498 1498 1498 1498 1497 1496 1495 1493 1492 1490 1488 1486 1484 1482 1481 1479 1478 1476 1475 1473 1472 1470 1469 1467 1466
1524 1526 1519 1518 1517 1518 1520 1524 1524 1532 1531 1531 1524 1515 1503 1498 1497 1497 1497 1497 1497 1496 1496 1495 1494 1493 1492 1491 1489 1488 1486 1484 1482 1480 1479 1477 1476 1474 1473 1471 1469 1468 1467 1465
1520 1525 1520 1518 1518 1519 1520 1521 1527 1529 1528 1527 1521 1515 1507 1497 1496 1496 1496 1495 1494 1494 1494 1493 1492 1492 1491 1490 1488 1487 1485 1483 1482 1480 1479 1477 1476 1474 1472 1471 1469 1467 1466 1464
1519 1524 1523 1520 1520 1520 1521 1521 1523 1527 1528 1528 1526 1513 1496 1493 1492 1493 1493 1492 1492 1492 1492 1491 1490 1490 1489 1488 1487 1486 1484 1483 1481 1480 1478 1477 1475 1473 1472 1470 1468 1466 1465 1463
1519 1525 1527 1521 1516 1515 1517 1518 1521 1527 1526 1526 1526 1512 1490 1490 1489 1490 1490 1490 1490 1490 1490 1489 1489 1488 1487 1486 1485 1484 1483 1482 1481 1479 1478 1476 1474 1473 1471 1469 1467 1466 1464 1462
1519 1524 1529 1523 1522 1517 1516 1515 1516 1518 1522 1525 1524 1509 1490 1489 1488 1489 1489 1488 1488 1488 1488 1487 1487 1486 1485 1484 1484 1483 1482 1481 1480 1479 1477 1476 1474 1472 1471 1469 1467 1465 1463 1462
1518 1523 1527 1523 1517 1515 1514 1512 1512 1516 1521 1519 1511 1500 1491 1489 1488 1487 1486 1485 1485 1485 1485 1484 1484 1483 1483 1482 1482 1481 1480 1480 1479 1478 1476 1475 1473 1472 1470 1468 1466 1464 1463 1461
1519 1522 1520 1517 1513 1513 1511 1509 1508 1509 1509 1509 1500 1496 1486 1485 1485 1484 1483 1482 1482 1482 1482 1481 1481 1481 1481 1480 1480 1479 1479 1478 1477 1476 1475 1474 1472 1471 1469 1467 1465 1464 1462 1460
1519 1521 1519 1517 1509 1509 1506 1500 1500 1500 1499 1497 1495 1489 1480 1480 1480 1480 1479 1479 1478 1478 1478 1478 1478 1478 1478 1477 1477 1477 1477 1476 1475 1474 1473 1472 1471 1469 1468 1466 1464 1462 1460 1458
1521 1522 1521 1520 1512 1507 1501 1489 1490 1491 1488 1489 1488 1481 1477 1478 1477 1476 1475 1475 1474 1474 1474 1474 1474 1474 1474 1475 1475 1474 1474 1474 1473 1472 1471 1470 1469 1467 1466 1464 1462 1460 1458 1456
1519 1521 1523 1522 1516 1509 1489 1480 1481 1483 1480 1479 1476 1474 1474 1473 1472 1472 1472 1471 1471 1471 1471 1471 1471 1471 1471 1471 1472 1472 1472 1471 1470 1469 1468 1467 1466 1465 1463 1462 1460 1458 1456 1454
1514 1518 1521 1522 1520 1506 1486 1479 1478 1480 1477 1472 1472 1471 1471 1471 1471 1469 1469 1468 1468 1468 1468 1468 1468 1468 1468 1468 1468 1468 1468 1468 1467 1466 1465 1464 1463 1462 1460 1458 1457 1455 1453 1451
1513 1515 1520 1520 1515 1502 1481 1476 1475 1477 1476 1468 1468 1468 1468 1470 1473 1468 1465 1465 1465 1465 1464 1464 1464 1464 1464 1465 1465 1465 1464 1464 1463 1463 1462 1461 1460 1458 1457 1455 1453 1452 1450 1448
1514 1516 1517 1517 1513 1496 1478 1475 1476 1481 1474 1467 1465 1465 1466 1466 1465 1464 1462 1462 1461 1461 1460 1460 1460 1460 1460 1461 1461 1461 1460 1460 1460 1459 1458 1457 1456 1455 1453 1451 1450 1448 1446 1444
1508 1511 1512 1511 1509 1494 1472 1473 1475 1470 1465 1464 1464 1463 1463 1461 1461 1460 1459 1458 1457 1457 1456 1456 1456 1456 1457 1457 1457 1456 1456 1457 1456 1455 1454 1453 1452 1451 1449 1448 1446 1444 1442 1440
1498 1494 1493 1492 1482 1469 1467 1466 1464 1464 1463 1462 1461 1460 1460 1458 1457 1456 1455 1455 1454 1453 1452 1452 1452 1452 1453 1453 1453 1453 1453 1453 1452 1451 1450 1449 1448 1447 1445 1444 1442 1441 1439 1436
1487 1483 1485 1482 1469 1464 1463 1462 1461 1460 1459 1458 1458 1457 1456 1454 1453 1452 1451 1450 1449 1449 1448 1448 1448 1447 1447 1448 1448 1448 1448 1448 1447 1446 1446 1445 1444 1443 1441 1440 1438 1436 1434 1432
1481 1479 1479 1474 1464 1461 1457 1457 1457 1456 1455 1454 1453 1452 1451 1450 1448 1447 1446 1445 1444 1444 1443 1443 1443 1443 1443 1443 1443 1443 1443 1443 1442 1442 1441 1440 1439 1438 1437 1436 1434 1432 1431 1429
1469 1470 1471 1463 1457 1457 1454 1453 1453 1452 1451 1449 1448 1447 1446 1445 1443 1442 1441 1440 1439 1439 1438 1438 1438 1438 1438 1438 1438 1438 1438 1438 1437 1437 1436 1435 1435 1434 1433 1431 1430 1428 1427 1425